Probability
0 0 0 0 0 0 0 0 0 0 0 0 0 0 0 0 0 0 0 0 0 0 0 0 0 0 0 0 0 1 2 3 3 3 3 3 2 2 3 3 3 3 3 2
0 0 0 0 0 0 0 0 0 0 0 0 0 0 0 0 0 0 0 0 0 0 0 0 0 0 0 0 0 1 3 3 3 3 3 3 1 1 2 3 3 3 3 3
0 0 0 0 0 0 0 0 0 0 0 0 0 0 0 0 0 0 0 0 0 0 0 0 0 1 1 1 1 2 3 3 3 3 3 3 1 1 2 3 3 3 3 3
0 0 0 0 0 0 0 0 0 0 0 0 0 0 0 0 0 0 0 0 0 0 0 0 1 2 2 2 3 3 3 3 3 3 3 3 3 2 2 2 2 3 3 3
0 0 0 0 0 0 0 0 0 0 0 0 0 0 0 0 0 0 0 0 0 0 0 0 1 2 3 3 3 3 4 4 4 3 2 2 2 2 1 1 1 1 2 2
0 0 0 0 0 0 0 0 0 0 0 0 0 0 0 0 0 0 0 0 0 0 0 1 1 3 4 4 3 3 4 4 3 2 1 1 1 1 0 0 0 0 1 1
0 0 0 0 0 0 0 0 0 0 0 0 0 0 0 0 0 0 0 0 0 0 0 1 2 3 4 4 3 2 2 2 1 1 0 0 0 0 0 0 0 0 0 0
0 0 0 0 0 0 0 0 0 0 0 0 0 0 0 0 0 0 0 0 0 0 0 1 1 2 3 2 1 1 0 0 1 1 1 1 0 0 0 0 0 0 0 0
0 0 0 0 0 0 0 0 0 0 0 0 0 0 0 0 0 0 0 0 0 0 0 0 0 1 1 0 0 0 0 0 1 2 2 2 1 0 0 0 0 0 0 0
0 0 0 0 0 0 0 0 0 0 0 0 0 0 0 0 0 0 0 0 0 0 0 0 0 0 0 0 0 0 0 0 0 1 1 1 1 0 0 0 0 0 0 0
0 0 0 0 0 0 0 0 0 0 0 0 0 0 0 0 0 0 0 0 0 0 0 0 0 0 0 0 0 0 0 0 0 0 0 0 0 0 0 0 0 0 0 0
0 0 0 0 0 0 0 0 0 0 0 0 0 0 0 0 0 0 0 0 0 0 0 0 0 0 0 0 0 0 0 0 0 0 0 0 0 0 0 0 0 0 0 0
0 0 0 0 0 0 0 0 0 0 0 0 0 0 0 0 0 0 0 0 0 0 0 0 0 0 0 1 1 0 0 0 0 0 0 0 0 0 0 0 0 0 0 0
0 0 0 0 0 0 0 0 0 0 0 0 0 0 0 0 0 0 0 0 0 0 0 0 0 0 1 2 2 1 0 0 0 0 0 0 0 0 0 0 0 0 0 0
0 0 0 0 0 0 0 0 0 0 0 0 0 0 0 0 0 0 0 0 0 0 1 1 0 1 2 3 3 1 0 0 0 0 0 0 1 1 0 1 2 1 1 0
0 0 0 0 0 0 0 0 0 0 0 0 0 0 0 0 0 0 0 0 0 1 2 2 1 1 2 3 3 2 1 0 0 0 0 1 2 1 1 2 3 2 1 1
0 0 0 0 0 0 0 0 0 0 0 0 0 0 0 0 0 0 0 0 1 1 2 2 2 2 3 3 3 3 2 1 0 1 1 2 3 2 2 3 4 3 2 1
0 0 0 0 0 0 0 0 0 0 0 0 0 0 0 0 0 0 0 0 0 0 1 1 2 3 4 3 3 3 3 1 1 2 3 3 2 2 2 4 5 5 3 2
0 0 0 0 0 0 0 0 0 0 0 0 0 0 0 0 0 0 0 0 0 0 0 0 1 3 5 4 3 3 3 3 3 3 3 3 1 1 2 4 6 6 5 3
0 0 0 0 0 0 0 0 0 0 0 0 0 0 0 0 0 0 0 0 0 1 1 1 1 3 4 4 3 3 3 3 3 3 3 2 1 0 1 3 5 6 6 4
0 0 0 0 0 0 0 0 0 0 0 0 0 0 0 0 0 0 0 0 1 2 2 2 3 3 3 3 3 3 3 3 3 2 1 1 0 0 0 2 4 5 6 6
0 0 0 0 0 0 0 0 0 0 0 0 0 0 0 0 0 0 0 0 1 2 3 3 3 3 3 3 3 3 3 3 2 1 0 0 0 0 0 2 3 4 5 5
0 0 0 0 0 0 0 0 0 0 0 0 0 0 0 0 0 0 0 0 0 1 2 3 3 3 3 3 3 3 2 1 1 0 0 0 0 0 0 1 3 3 3 2
0 0 0 0 0 0 0 0 0 0 0 0 0 0 0 0 0 0 0 0 0 0 1 2 2 2 2 2 2 2 1 0 0 0 0 0 0 0 0 1 2 2 1 0
0 0 0 0 0 0 0 0 0 0 0 0 0 0 0 0 0 0 0 0 0 0 0 1 1 1 1 1 1 1 0 0 0 0 0 0 0 0 0 0 1 1 0 0
0 0 0 0 0 0 0 0 0 0 0 0 0 0 0 0 0 0 0 0 0 0 0 0 0 0 0 0 0 0 0 0 0 0 0 0 0 0 0 0 0 0 0 0
Wind_Speed
3 5 4 3 2 3 2 3 3 1 1 3 5 5 3 4 6 6 5 6 5 5 4 3 3 3 4 4 4 4 4 5 4 3 2 2 2 2 2 2 3 2 2 2
6 5 2 1 3 4 5 5 3 1 1 4 5 5 4 4 5 5 5 5 5 5 5 5 4 4 4 4 5 5 4 4 4 2 2 2 2 1 2 2 2 2 2 2
6 1 3 5 6 7 7 6 4 3 2 5 5 5 4 3 4 4 5 4 4 5 5 6 5 4 4 4 4 3 4 4 4 4 2 2 2 2 2 2 2 1 2 1
3 2 4 5 4 5 5 3 5 5 5 3 4 4 2 3 4 5 5 5 4 5 5 4 5 5 5 4 4 4 4 4 4 4 4 4 2 2 1 1 1 2 2 1
3 3 5 6 4 5 2 1 3 5 6 6 5 6 1 3 4 4 4 5 4 5 5 5 5 5 4 4 4 3 4 4 4 4 4 4 3 2 1 1 2 1 1 1
3 2 4 3 1 3 3 3 3 4 6 6 3 5 2 1 1 1 3 5 5 5 5 5 5 4 4 4 4 3 4 4 4 4 4 4 3 3 3 2 1 1 1 1
6 6 4 4 5 5 6 6 4 5 5 3 1 5 2 2 1 2 2 4 5 5 6 6 6 5 5 5 4 4 4 4 4 4 4 3 3 3 3 2 2 1 1 1
5 5 4 4 6 5 6 7 5 4 3 2 4 5 0 2 0 2 2 3 5 5 5 5 6 6 5 5 5 4 4 4 4 4 4 3 3 2 1 2 1 2 1 1
4 2 2 1 3 5 5 6 5 6 5 6 4 3 2 3 2 2 3 3 5 5 5 5 5 5 5 5 5 5 5 4 4 4 4 3 3 3 2 2 2 1 1 1
4 4 2 2 4 1 4 2 4 6 5 6 5 5 2 2 1 2 3 4 4 5 5 5 5 5 5 5 5 5 5 4 4 4 3 3 3 3 2 3 2 2 2 2
4 6 4 5 6 5 5 6 6 6 6 6 5 1 3 1 1 1 2 3 4 5 5 5 5 5 5 5 5 5 5 4 4 4 4 4 4 3 3 3 3 2 3 3
2 5 5 4 1 3 6 6 8 7 7 7 7 2 4 0 1 1 2 2 3 4 4 4 5 5 6 6 6 5 5 5 4 4 4 4 3 4 4 3 3 3 3 3
2 5 5 5 5 5 5 4 6 7 6 7 8 3 4 1 2 2 3 3 3 4 4 5 5 6 6 6 6 6 6 5 5 5 5 5 4 4 4 4 3 3 3 3
3 6 7 7 4 2 4 5 7 9 9 9 11 9 5 5 5 4 3 4 4 5 5 5 6 6 6 6 6 6 6 5 5 5 6 5 5 5 5 4 4 4 3 4
4 7 7 7 6 6 9 9 9 12 12 12 11 10 9 7 6 6 5 4 5 5 6 6 6 6 6 6 7 6 6 6 6 6 6 5 5 5 4 4 4 4 4 4
4 6 5 7 6 8 11 12 12 12 12 13 12 11 7 6 5 6 5 5 5 6 6 6 7 7 7 7 7 7 6 6 6 6 6 5 5 5 5 4 4 4 4 4
4 6 6 7 4 7 11 9 9 9 8 9 11 6 5 6 6 6 6 6 6 6 6 6 7 7 7 7 7 7 6 6 6 6 6 5 5 5 5 4 4 4 4 4
6 7 5 6 6 10 1 1 3 6 5 4 5 5 6 7 7 6 5 6 7 7 6 6 6 6 6 6 6 5 5 6 6 6 6 5 5 5 5 5 5 5 4 4
7 7 6 6 7 8 4 2 2 5 4 2 3 4 5 6 5 3 3 6 7 7 7 6 5 5 4 5 5 5 5 6 6 6 6 6 6 6 5 6 6 5 5 5
5 7 7 7 8 7 1 2 1 5 5 1 2 4 5 5 5 4 7 8 7 6 5 5 4 4 4 4 4 6 6 5 6 6 6 6 6 6 6 6 6 5 5 5
6 7 9 10 10 7 1 1 3 6 1 2 2 4 5 5 6 7 9 8 8 6 5 4 3 3 3 3 5 6 6 6 5 5 5 6 6 6 6 6 5 5 5 5
7 6 8 8 10 6 3 3 4 3 3 2 3 4 5 6 7 8 8 8 7 6 5 4 3 3 2 3 5 6 6 5 4 5 6 6 6 5 5 5 5 5 5 5
7 5 4 6 4 3 1 2 2 4 4 4 4 5 6 7 8 8 8 8 7 6 5 4 3 3 3 3 5 6 4 4 4 5 6 6 6 5 5 5 5 5 5 5
4 3 6 7 7 5 4 5 5 5 5 5 6 6 7 7 8 8 8 7 7 6 6 4 4 4 3 3 4 5 4 4 5 5 6 6 6 6 5 4 5 5 5 5
5 5 7 10 8 7 6 6 6 5 6 6 6 6 7 8 8 8 8 7 7 6 6 5 4 4 4 4 4 4 4 4 5 5 5 5 5 5 5 5 4 6 5 5
7 8 8 8 7 7 7 6 6 7 7 7 7 7 7 7 8 8 8 7 7 6 6 5 5 5 5 4 4 4 4 5 5 4 4 4 4 4 4 4 4 3 5 5
Wind_Direction
188 211 208 203 246 287 258 262 261 256 181 254 262 269 244 209 215 222 214 210 207 200 186 172 173 176 179 184 190 177 173 169 164 166 168 146 124 113 98 76 72 81 75 71
199 211 215 226 217 238 243 253 260 233 166 251 274 272 246 224 221 226 225 213 206 194 181 176 178 173 175 178 188 181 179 171 169 170 158 146 121 106 85 94 108 99 89 82
228 141 162 199 209 228 244 258 272 288 267 226 270 247 202 197 203 209 222 222 209 200 194 180 176 173 174 182 187 181 174 170 173 170 158 144 131 146 144 136 110 97 100 108
241 225 196 207 216 243 245 264 262 253 260 260 268 286 205 193 200 201 207 210 206 193 192 183 176 173 178 177 179 179 165 169 165 167 172 171 179 174 145 131 127 137 139 139
203 207 217 224 227 237 277 289 250 255 264 268 241 267 204 173 214 211 205 201 199 188 182 178 175 175 172 161 164 174 164 163 158 173 170 189 185 175 150 161 157 162 136 154
232 214 252 257 215 218 180 200 202 232 246 252 258 263 262 152 268 245 199 192 189 184 177 172 166 164 158 155 155 164 166 160 160 178 184 191 181 186 176 186 180 179 155 175
215 210 213 226 212 184 213 240 237 223 220 243 158 255 267 30 339 279 239 193 183 181 177 171 167 168 163 163 164 165 168 170 173 186 197 192 192 193 186 183 186 211 203 195
231 215 198 219 247 237 223 246 261 278 272 264 205 246 174 59 329 241 211 184 172 173 176 173 171 171 168 168 172 175 174 175 177 189 193 193 183 197 181 186 199 222 232 235
247 214 119 243 266 250 222 233 279 281 277 272 238 227 207 162 164 172 173 173 173 172 173 172 169 171 169 169 172 177 177 177 180 188 189 191 191 196 200 208 207 220 234 238
267 256 196 172 188 183 280 220 219 245 266 264 252 243 224 160 159 165 171 183 179 176 180 177 173 173 171 170 173 177 182 180 180 187 193 199 198 199 216 221 220 234 244 249
247 247 208 196 226 226 189 205 231 245 257 271 273 223 59 23 357 263 206 195 188 187 188 184 181 178 175 173 176 182 187 190 189 199 200 203 199 204 204 217 215 234 247 246
242 263 250 237 222 311 258 241 233 246 242 251 275 276 93 76 327 286 265 219 206 199 194 190 186 184 184 187 190 193 194 195 198 206 209 212 204 217 217 213 218 236 252 258
207 247 253 220 189 189 224 228 238 255 261 249 252 245 128 200 283 284 269 252 219 210 205 198 195 197 196 199 202 199 206 203 200 208 214 213 212 221 227 221 217 236 240 248
254 248 259 273 312 295 252 238 230 237 246 253 252 268 260 277 291 295 283 255 235 219 216 211 209 210 209 208 212 207 212 207 205 211 220 218 219 221 223 225 228 242 245 245
259 256 254 265 274 266 267 262 243 243 256 265 271 274 281 291 298 301 298 271 244 234 229 223 221 220 217 216 219 215 213 210 211 216 221 223 226 219 218 220 232 242 246 249
250 255 254 253 248 256 260 257 252 251 255 260 268 271 289 298 299 301 299 285 262 251 246 241 234 228 222 218 220 218 215 213 215 220 224 220 224 217 215 219 228 236 246 251
224 242 252 257 252 264 254 246 241 239 244 256 263 283 315 302 305 311 313 304 292 285 270 258 250 241 234 226 222 219 215 212 216 220 222 218 220 219 220 218 224 230 238 244
235 237 249 264 253 249 283 48 275 253 255 269 281 303 308 309 311 306 309 308 306 303 289 273 262 250 239 231 223 219 213 210 216 218 218 216 218 219 220 221 225 230 234 238
238 233 240 248 255 266 253 205 221 245 243 290 284 305 319 322 292 276 338 323 313 309 303 288 273 257 239 222 212 210 212 212 217 218 219 220 220 218 219 224 230 229 228 234
205 229 238 239 250 255 206 105 271 249 227 94 326 326 330 323 294 336 352 335 322 318 311 301 280 254 231 217 207 210 213 216 222 223 221 221 224 221 223 226 230 229 224 228
191 208 229 240 249 260 19 91 219 237 348 62 328 325 323 308 311 325 326 326 325 321 315 305 277 251 239 223 217 220 220 225 230 229 224 220 222 224 224 224 226 227 223 226
225 222 225 233 240 247 105 172 233 312 358 316 316 320 312 308 314 316 318 321 323 320 315 307 286 268 251 232 227 230 231 232 231 227 227 224 222 220 217 217 219 221 218 222
234 248 256 246 263 359 180 237 306 324 307 314 314 315 310 309 311 315 316 316 316 315 312 307 296 282 264 240 237 242 243 238 230 225 225 226 221 219 217 211 212 214 214 219
228 252 254 258 257 267 263 260 271 278 286 304 308 304 299 301 306 310 312 312 311 309 306 303 293 282 277 265 255 253 247 235 233 231 228 223 220 215 216 215 215 217 217 220
247 230 248 259 268 269 258 257 268 276 281 291 300 297 292 294 297 303 308 307 303 301 299 291 283 281 282 278 268 259 244 230 234 235 234 226 221 219 218 216 222 226 227 230
231 234 244 258 262 264 275 282 281 279 280 285 292 294 292 289 293 300 303 302 296 295 297 290 285 284 284 283 276 266 246 232 232 233 233 231 222 220 220 218 224 236 244 237